Time,TemperatureF,DewpointF,PressureIn,WindDirection,WindDirectionDegrees,WindSpeedMPH,WindSpeedGustMPH,Humidity,HourlyPrecipIn,Conditions,Clouds,dailyrainin,SolarRadiationWatts/m^2,SoftwareType,DateUTC
2013-12-28 00:00:00,37.7,31.1,30.18,SW,236,15.0,15.0,77,0.00,CLR,CLR,0.00,0.0,WeatherDisplay:10.37,2013-12-28 05:00:00,
2013-12-28 00:05:00,37.7,31.1,30.17,SW,219,7.0,88.0,77,21.96,,---,0.00,,VWS V13.01,2013-12-28 05:05:00,
2013-12-28 00:10:00,37.7,31.1,30.17,SW,228,16.1,16.1,77,0.00,CLR,CLR,0.00,0.0,WeatherDisplay:10.37,2013-12-28 05:10:00,
2013-12-28 00:15:00,37.8,31.2,30.17,SW,230,16.1,16.1,77,0.00,CLR,CLR,0.00,0.0,WeatherDisplay:10.37,2013-12-28 05:15:00,
2013-12-28 00:20:00,37.9,31.4,30.17,SSW,213,12.0,88.0,77,21.96,,---,0.00,,VWS V13.01,2013-12-28 05:20:00,
2013-12-28 00:25:00,37.9,31.3,30.17,SW,217,16.1,16.1,77,0.00,CLR,CLR,0.00,0.0,WeatherDisplay:10.37,2013-12-28 05:25:00,
2013-12-28 00:30:00,37.9,31.3,30.17,SW,233,17.3,17.3,77,0.00,CLR,CLR,0.00,0.0,WeatherDisplay:10.37,2013-12-28 05:30:00,
2013-12-28 00:35:00,37.8,31.2,30.17,SW,217,15.0,15.0,77,0.00,CLR,CLR,0.00,0.0,WeatherDisplay:10.37,2013-12-28 05:35:00,
2013-12-28 00:40:00,37.9,31.3,30.17,SW,217,12.7,12.7,77,0.00,CLR,CLR,0.00,0.0,WeatherDisplay:10.37,2013-12-28 05:40:00,
2013-12-28 00:45:00,38.0,31.4,30.17,SW,225,12.7,12.7,77,0.00,CLR,CLR,0.00,0.0,WeatherDisplay:10.37,2013-12-28 05:45:00,
2013-12-28 00:50:00,38.0,31.4,30.17,SW,229,11.5,11.5,77,0.00,CLR,CLR,0.00,0.0,WeatherDisplay:10.37,2013-12-28 05:50:00,
2013-12-28 00:55:00,37.9,31.3,30.16,SW,232,12.0,12.0,77,0.00,CLR,CLR,0.00,0.0,WeatherDisplay:10.37,2013-12-28 05:55:00,
2013-12-28 01:00:00,37.8,31.2,30.16,SW,231,6.9,6.9,77,0.00,CLR,CLR,0.00,0.0,WeatherDisplay:10.37,2013-12-28 06:00:00,
2013-12-28 01:05:00,37.7,31.1,30.16,WSW,246,11.5,11.5,77,0.00,CLR,CLR,0.00,0.0,WeatherDisplay:10.37,2013-12-28 06:05:00,
2013-12-28 01:10:00,37.7,31.1,30.16,SW,221,13.8,13.8,77,0.00,CLR,CLR,0.00,0.0,WeatherDisplay:10.37,2013-12-28 06:10:00,
2013-12-28 01:15:00,37.8,31.2,30.16,SW,217,11.5,11.5,77,0.00,CLR,CLR,0.00,0.0,WeatherDisplay:10.37,2013-12-28 06:15:00,
2013-12-28 01:20:00,37.7,31.1,30.16,SW,218,12.0,12.0,77,0.00,CLR,CLR,0.00,0.0,WeatherDisplay:10.37,2013-12-28 06:20:00,
2013-12-28 01:25:00,37.7,31.1,30.16,SW,223,10.4,10.4,77,0.00,CLR,CLR,0.00,0.0,WeatherDisplay:10.37,2013-12-28 06:25:00,
2013-12-28 01:30:00,37.7,31.1,30.16,SW,221,12.7,12.7,77,0.00,CLR,CLR,0.00,0.0,WeatherDisplay:10.37,2013-12-28 06:30:00,
2013-12-28 01:35:00,37.7,31.1,30.16,WSW,243,12.7,12.7,77,0.00,CLR,CLR,0.00,0.0,WeatherDisplay:10.37,2013-12-28 06:35:00,
2013-12-28 01:40:00,37.5,30.9,30.16,SW,234,11.5,11.5,77,0.00,CLR,CLR,0.00,0.0,WeatherDisplay:10.37,2013-12-28 06:40:00,
2013-12-28 01:45:00,37.5,30.9,30.16,SSW,213,10.4,10.4,77,0.00,CLR,CLR,0.00,0.0,WeatherDisplay:10.37,2013-12-28 06:45:00,
2013-12-28 01:50:00,37.5,30.9,30.16,SW,221,11.5,11.5,77,0.00,CLR,CLR,0.00,0.0,WeatherDisplay:10.37,2013-12-28 06:50:00,
2013-12-28 01:55:00,37.6,31.0,30.16,West,263,11.5,11.5,77,0.00,CLR,CLR,0.00,0.0,WeatherDisplay:10.37,2013-12-28 06:55:00,
2013-12-28 02:00:00,37.7,31.1,30.15,WSW,248,15.0,15.0,77,0.00,CLR,CLR,0.00,0.0,WeatherDisplay:10.37,2013-12-28 07:00:00,
2013-12-28 02:05:00,38.0,31.4,30.15,SW,223,10.4,10.4,77,0.00,CLR,CLR,0.00,0.0,WeatherDisplay:10.37,2013-12-28 07:05:00,
2013-12-28 02:10:00,38.2,31.6,30.15,SSW,200,15.0,15.0,77,0.00,CLR,CLR,0.00,0.0,WeatherDisplay:10.37,2013-12-28 07:10:00,
2013-12-28 02:15:00,38.3,31.7,30.15,SW,221,16.1,16.1,77,0.00,CLR,CLR,0.00,0.0,WeatherDisplay:10.37,2013-12-28 07:15:00,
2013-12-28 02:20:00,38.4,31.8,30.15,WSW,238,12.7,12.7,77,0.00,CLR,CLR,0.00,0.0,WeatherDisplay:10.37,2013-12-28 07:20:00,
2013-12-28 02:25:00,38.5,31.9,30.15,SW,215,11.5,11.5,77,0.00,CLR,CLR,0.00,0.0,WeatherDisplay:10.37,2013-12-28 07:25:00,
2013-12-28 02:30:00,38.6,32.0,30.15,WSW,248,14.0,88.0,77,21.96,,---,0.00,,VWS V13.01,2013-12-28 07:30:00,
2013-12-28 02:35:00,38.6,31.7,30.15,SW,221,11.5,11.5,76,0.00,CLR,CLR,0.00,0.0,WeatherDisplay:10.37,2013-12-28 07:35:00,
2013-12-28 02:40:00,38.9,32.0,30.16,WSW,247,7.0,88.0,76,21.96,,---,0.00,,VWS V13.01,2013-12-28 07:40:00,
2013-12-28 02:45:00,38.8,31.9,30.16,WSW,240,12.7,12.7,76,0.00,CLR,CLR,0.00,0.0,WeatherDisplay:10.37,2013-12-28 07:45:00,
2013-12-28 02:50:00,38.7,31.8,30.16,WSW,242,6.0,88.0,76,21.96,,---,0.00,,VWS V13.01,2013-12-28 07:50:00,
2013-12-28 02:55:00,38.6,31.7,30.16,WSW,244,13.8,13.8,76,0.00,CLR,CLR,0.00,0.0,WeatherDisplay:10.37,2013-12-28 07:55:00,
2013-12-28 03:00:00,38.7,31.8,30.16,SSW,211,4.0,88.0,76,21.96,,---,0.00,,VWS V13.01,2013-12-28 08:00:00,
2013-12-28 03:05:00,38.6,31.7,30.16,SW,229,11.5,11.5,76,0.00,CLR,CLR,0.00,0.0,WeatherDisplay:10.37,2013-12-28 08:05:00,
2013-12-28 03:10:00,38.5,31.6,30.16,SW,231,8.1,8.1,76,0.00,CLR,CLR,0.00,0.0,WeatherDisplay:10.37,2013-12-28 08:10:00,
2013-12-28 03:15:00,38.4,31.5,30.16,SW,229,9.2,9.2,76,0.00,CLR,CLR,0.00,0.0,WeatherDisplay:10.37,2013-12-28 08:15:00,
2013-12-28 03:20:00,38.4,31.5,30.15,SW,227,9.2,9.2,76,0.00,CLR,CLR,0.00,0.0,WeatherDisplay:10.37,2013-12-28 08:20:00,
2013-12-28 03:25:00,38.3,31.4,30.16,WSW,249,11.5,11.5,76,0.00,CLR,CLR,0.00,0.0,WeatherDisplay:10.37,2013-12-28 08:25:00,
2013-12-28 03:30:00,38.2,31.3,30.16,WSW,254,12.0,12.0,76,0.00,CLR,CLR,0.00,0.0,WeatherDisplay:10.37,2013-12-28 08:30:00,
2013-12-28 03:35:00,38.0,31.1,30.16,WSW,256,6.9,6.9,76,0.00,CLR,CLR,0.00,0.0,WeatherDisplay:10.37,2013-12-28 08:35:00,
2013-12-28 03:40:00,37.7,31.1,30.16,WSW,245,5.8,5.8,77,0.00,CLR,CLR,0.00,0.0,WeatherDisplay:10.37,2013-12-28 08:40:00,
2013-12-28 03:45:00,37.6,31.0,30.16,West,271,11.5,11.5,77,0.00,CLR,CLR,0.00,0.0,WeatherDisplay:10.37,2013-12-28 08:45:00,
2013-12-28 03:50:00,37.5,30.9,30.15,SW,222,11.5,11.5,77,0.00,CLR,CLR,0.00,0.0,WeatherDisplay:10.37,2013-12-28 08:50:00,
2013-12-28 03:55:00,37.5,30.9,30.15,WSW,252,10.4,10.4,77,0.00,CLR,CLR,0.00,0.0,WeatherDisplay:10.37,2013-12-28 08:55:00,
2013-12-28 04:00:00,37.4,30.8,30.15,WSW,255,11.5,11.5,77,0.00,CLR,CLR,0.00,0.0,WeatherDisplay:10.37,2013-12-28 09:00:00,
2013-12-28 04:05:00,37.4,30.9,30.15,SW,223,12.0,88.0,77,21.96,,---,0.00,,VWS V13.01,2013-12-28 09:05:00,
2013-12-28 04:10:00,37.1,30.6,30.15,SW,232,10.4,10.4,77,0.00,CLR,CLR,0.00,0.0,WeatherDisplay:10.37,2013-12-28 09:10:00,
2013-12-28 04:15:00,36.9,30.4,30.15,SW,225,9.2,9.2,77,0.00,CLR,CLR,0.00,0.0,WeatherDisplay:10.37,2013-12-28 09:15:00,
2013-12-28 04:20:00,36.6,30.1,30.15,SW,226,5.8,5.8,77,0.00,CLR,CLR,0.00,0.0,WeatherDisplay:10.37,2013-12-28 09:20:00,
2013-12-28 04:25:00,36.5,30.0,30.15,WSW,242,5.8,5.8,77,0.00,CLR,CLR,0.00,0.0,WeatherDisplay:10.37,2013-12-28 09:25:00,
2013-12-28 04:30:00,36.4,29.9,30.15,WSW,245,5.0,5.0,77,0.00,CLR,CLR,0.00,0.0,WeatherDisplay:10.37,2013-12-28 09:30:00,
2013-12-28 04:35:00,36.4,29.9,30.15,SW,229,9.2,9.2,77,0.00,CLR,CLR,0.00,0.0,WeatherDisplay:10.37,2013-12-28 09:35:00,
2013-12-28 04:40:00,36.3,29.8,30.15,SW,222,9.2,9.2,77,0.00,CLR,CLR,0.00,0.0,WeatherDisplay:10.37,2013-12-28 09:40:00,
2013-12-28 04:45:00,36.3,29.8,30.15,WSW,250,5.0,88.0,77,21.96,,---,0.00,,VWS V13.01,2013-12-28 09:45:00,
2013-12-28 04:50:00,36.2,29.7,30.15,West,261,9.2,9.2,77,0.00,CLR,CLR,0.00,0.0,WeatherDisplay:10.37,2013-12-28 09:50:00,
2013-12-28 04:55:00,36.3,29.8,30.15,SW,226,11.5,11.5,77,0.00,CLR,CLR,0.00,0.0,WeatherDisplay:10.37,2013-12-28 09:55:00,
2013-12-28 05:00:00,36.4,29.9,30.15,SSW,206,10.4,10.4,77,0.00,CLR,CLR,0.00,0.0,WeatherDisplay:10.37,2013-12-28 10:00:00,
2013-12-28 05:03:00,35.8,29.3,30.16,SSW,211,12.7,12.7,77,0.00,CLR,CLR,0.00,0.0,WeatherDisplay:10.37,2013-12-28 10:03:00,
2013-12-28 05:04:00,35.8,29.3,30.16,WSW,242,9.2,9.2,77,0.00,CLR,CLR,0.00,0.0,WeatherDisplay:10.37,2013-12-28 10:04:00,
2013-12-28 05:05:00,36.3,29.8,30.15,SW,233,5.8,5.8,77,0.00,CLR,CLR,0.00,0.0,WeatherDisplay:10.37,2013-12-28 10:05:00,
2013-12-28 05:06:00,35.8,29.3,30.16,SW,215,6.9,6.9,77,0.00,CLR,CLR,0.00,0.0,WeatherDisplay:10.37,2013-12-28 10:06:00,
2013-12-28 05:07:00,35.8,29.3,30.16,SSW,213,6.0,88.0,77,21.96,,---,0.00,,VWS V13.01,2013-12-28 10:07:00,
2013-12-28 05:08:00,35.8,29.3,30.16,West,279,9.0,88.0,77,21.96,,---,0.00,,VWS V13.01,2013-12-28 10:08:00,
2013-12-28 05:09:00,35.8,29.3,30.17,WSW,246,2.0,88.0,77,21.96,,---,0.00,,VWS V13.01,2013-12-28 10:09:00,
2013-12-28 05:10:00,36.2,29.7,30.15,SSW,207,5.0,88.0,77,21.96,,---,0.00,,VWS V13.01,2013-12-28 10:10:00,
2013-12-28 05:11:00,35.8,29.3,30.17,SW,218,11.0,88.0,77,21.96,,---,0.00,,VWS V13.01,2013-12-28 10:11:00,
2013-12-28 05:12:00,35.7,29.2,30.17,SSW,213,7.0,88.0,77,21.96,,---,0.00,,VWS V13.01,2013-12-28 10:12:00,
2013-12-28 05:13:00,35.8,29.3,30.17,SW,236,6.0,88.0,77,21.96,,---,0.00,,VWS V13.01,2013-12-28 10:13:00,
2013-12-28 05:15:00,36.1,29.6,30.15,WSW,242,10.0,10.0,77,0.00,CLR,CLR,0.00,0.0,WeatherDisplay:10.37,2013-12-28 10:15:00,
2013-12-28 05:20:00,36.0,29.5,30.15,SW,229,9.2,9.2,77,0.00,CLR,CLR,0.00,0.0,WeatherDisplay:10.37,2013-12-28 10:20:00,
2013-12-28 05:25:00,35.9,29.4,30.16,SW,229,9.2,9.2,77,0.00,CLR,CLR,0.00,0.0,WeatherDisplay:10.37,2013-12-28 10:25:00,
2013-12-28 05:30:00,35.9,29.4,30.16,SW,215,4.0,88.0,77,21.96,,---,0.00,,VWS V13.01,2013-12-28 10:30:00,
2013-12-28 05:35:00,35.7,29.2,30.16,SW,228,12.0,12.0,77,0.00,CLR,CLR,0.00,0.0,WeatherDisplay:10.37,2013-12-28 10:35:00,
2013-12-28 05:40:00,35.7,29.2,30.16,South,180,6.9,6.9,77,0.00,CLR,CLR,0.00,0.0,WeatherDisplay:10.37,2013-12-28 10:40:00,
2013-12-28 05:45:00,35.7,29.2,30.16,SW,222,4.0,88.0,77,21.96,,---,0.00,,VWS V13.01,2013-12-28 10:45:00,
2013-12-28 05:50:00,35.7,29.2,30.16,SW,224,9.2,9.2,77,0.00,CLR,CLR,0.00,0.0,WeatherDisplay:10.37,2013-12-28 10:50:00,
2013-12-28 05:55:00,35.7,29.2,30.16,SW,233,9.0,88.0,77,21.96,,---,0.00,,VWS V13.01,2013-12-28 10:55:00,
2013-12-28 06:00:00,35.8,29.3,30.16,SW,215,6.9,6.9,77,0.00,CLR,CLR,0.00,0.0,WeatherDisplay:10.37,2013-12-28 11:00:00,
2013-12-28 06:05:00,35.8,29.3,30.16,SSW,199,9.0,9.0,77,0.00,CLR,CLR,0.00,0.0,WeatherDisplay:10.37,2013-12-28 11:05:00,
2013-12-28 06:10:00,35.8,29.3,30.17,SW,219,10.4,10.4,77,0.00,CLR,CLR,0.00,0.0,WeatherDisplay:10.37,2013-12-28 11:10:00,
2013-12-28 06:15:00,35.7,29.2,30.17,SSW,195,10.4,10.4,77,0.00,CLR,CLR,0.00,0.0,WeatherDisplay:10.37,2013-12-28 11:15:00,
2013-12-28 06:20:00,35.7,29.2,30.16,SW,236,14.0,14.0,77,0.00,CLR,CLR,0.00,0.0,WeatherDisplay:10.37,2013-12-28 11:20:00,
2013-12-28 06:25:00,35.6,29.1,30.17,SW,214,11.5,11.5,77,0.00,CLR,CLR,0.00,0.0,WeatherDisplay:10.37,2013-12-28 11:25:00,
2013-12-28 06:30:00,35.5,29.0,30.17,SW,223,12.7,12.7,77,0.00,CLR,CLR,0.00,0.0,WeatherDisplay:10.37,2013-12-28 11:30:00,
2013-12-28 06:35:00,35.5,29.0,30.17,SW,223,11.5,11.5,77,0.00,CLR,CLR,0.00,0.0,WeatherDisplay:10.37,2013-12-28 11:35:00,
2013-12-28 06:40:00,35.4,28.9,30.17,SSW,211,5.0,5.0,77,0.00,CLR,CLR,0.00,0.0,WeatherDisplay:10.37,2013-12-28 11:40:00,
2013-12-28 06:45:00,35.3,28.8,30.17,SSW,197,10.4,10.4,77,0.00,CLR,CLR,0.00,0.0,WeatherDisplay:10.37,2013-12-28 11:45:00,
2013-12-28 06:50:00,35.2,28.7,30.17,SW,225,9.2,9.2,77,0.00,CLR,CLR,0.00,0.0,WeatherDisplay:10.37,2013-12-28 11:50:00,
2013-12-28 06:55:00,35.2,28.7,30.17,SW,215,9.2,9.2,77,0.00,CLR,CLR,0.00,0.0,WeatherDisplay:10.37,2013-12-28 11:55:00,
2013-12-28 07:00:00,35.3,28.8,30.17,West,261,7.0,7.0,77,0.00,CLR,CLR,0.00,0.0,WeatherDisplay:10.37,2013-12-28 12:00:00,
2013-12-28 07:05:00,35.3,28.8,30.17,SSW,209,9.2,9.2,77,0.00,CLR,CLR,0.00,0.0,WeatherDisplay:10.37,2013-12-28 12:05:00,
2013-12-28 07:10:00,35.4,28.9,30.17,SSW,209,19.6,19.6,77,0.00,CLR,CLR,0.00,0.0,WeatherDisplay:10.37,2013-12-28 12:10:00,
2013-12-28 07:15:00,35.4,28.9,30.17,SW,215,12.7,12.7,77,0.00,CLR,CLR,0.00,0.0,WeatherDisplay:10.37,2013-12-28 12:15:00,
2013-12-28 07:20:00,35.3,28.8,30.17,WSW,257,11.5,11.5,77,0.00,CLR,CLR,0.00,0.0,WeatherDisplay:10.37,2013-12-28 12:20:00,
2013-12-28 07:25:00,35.3,28.8,30.17,SW,222,14.0,88.0,77,21.96,,---,0.00,,VWS V13.01,2013-12-28 12:25:00,
2013-12-28 07:30:00,35.2,28.7,30.17,SW,226,11.0,11.0,77,0.00,CLR,CLR,0.00,0.0,WeatherDisplay:10.37,2013-12-28 12:30:00,
2013-12-28 07:35:00,35.2,28.7,30.17,SW,226,4.0,88.0,77,21.96,,---,0.00,,VWS V13.01,2013-12-28 12:35:00,
2013-12-28 07:40:00,35.1,28.3,30.17,WSW,243,1.2,0.0,76,0.00,CLR,CLR,0.00,0.0,WeatherDisplay:10.37,2013-12-28 12:40:00,
2013-12-28 07:45:00,35.0,28.2,30.17,SSW,207,0.0,0.0,76,0.00,CLR,CLR,0.00,0.0,WeatherDisplay:10.37,2013-12-28 12:45:00,
2013-12-28 07:50:00,34.9,28.1,30.17,SW,215,0.0,0.0,76,0.00,CLR,CLR,0.00,0.0,WeatherDisplay:10.37,2013-12-28 12:50:00,
2013-12-28 07:55:00,35.0,28.2,30.17,SW,234,0.0,0.0,76,0.00,CLR,CLR,0.00,0.0,WeatherDisplay:10.37,2013-12-28 12:55:00,
2013-12-28 08:00:00,35.0,28.2,30.17,SSW,192,0.0,0.0,76,0.00,CLR,CLR,0.00,0.0,WeatherDisplay:10.37,2013-12-28 13:00:00,
2013-12-28 08:05:00,34.9,28.1,30.17,SSW,198,0.0,0.0,76,0.00,CLR,CLR,0.00,0.0,WeatherDisplay:10.37,2013-12-28 13:05:00,
2013-12-28 08:10:00,35.0,28.2,30.17,SSW,211,0.0,0.0,76,0.00,CLR,CLR,0.00,0.0,WeatherDisplay:10.37,2013-12-28 13:10:00,
2013-12-28 08:15:00,35.0,28.2,30.17,SSW,205,0.0,0.0,76,0.00,CLR,CLR,0.00,7.0,WeatherDisplay:10.37,2013-12-28 13:15:00,
2013-12-28 08:20:00,34.9,28.1,30.17,SSW,205,0.0,0.0,76,0.00,CLR,CLR,0.00,9.0,WeatherDisplay:10.37,2013-12-28 13:20:00,
2013-12-28 08:25:00,34.7,27.9,30.17,SSW,199,0.0,0.0,76,0.00,CLR,CLR,0.00,11.0,WeatherDisplay:10.37,2013-12-28 13:25:00,
2013-12-28 08:30:00,34.4,27.6,30.17,SSW,199,0.0,0.0,76,0.00,CLR,CLR,0.00,14.0,WeatherDisplay:10.37,2013-12-28 13:30:00,
2013-12-28 08:35:00,34.4,27.6,30.17,SSW,199,0.0,0.0,76,0.00,CLR,CLR,0.00,18.0,WeatherDisplay:10.37,2013-12-28 13:35:00,
2013-12-28 08:40:00,34.4,27.6,30.17,SSW,199,0.0,0.0,76,0.00,CLR,CLR,0.00,25.0,WeatherDisplay:10.37,2013-12-28 13:40:00,
2013-12-28 08:45:00,34.4,27.6,30.16,SSW,198,0.0,0.0,76,0.00,CLR,CLR,0.00,33.0,WeatherDisplay:10.37,2013-12-28 13:45:00,
2013-12-28 08:50:00,34.4,27.6,30.17,SSW,198,0.0,0.0,76,0.00,CLR,CLR,0.00,42.0,WeatherDisplay:10.37,2013-12-28 13:50:00,
2013-12-28 08:55:00,34.4,27.3,30.16,SSW,198,0.0,0.0,75,0.00,CLR,CLR,0.00,53.0,WeatherDisplay:10.37,2013-12-28 13:55:00,
2013-12-28 09:00:00,34.4,27.3,30.16,SSW,198,0.0,88.0,75,21.96,,---,0.00,,VWS V13.01,2013-12-28 14:00:00,
2013-12-28 09:05:00,34.7,27.9,30.16,SSW,198,0.0,0.0,76,0.00,OVC,OVC,0.00,76.0,WeatherDisplay:10.37,2013-12-28 14:05:00,
2013-12-28 09:10:00,35.1,28.3,30.16,South,181,10.4,10.4,76,0.00,OVC,OVC,0.00,86.0,WeatherDisplay:10.37,2013-12-28 14:10:00,
2013-12-28 09:15:00,35.4,28.6,30.16,SSW,202,10.4,10.4,76,0.00,OVC,OVC,0.00,100.0,WeatherDisplay:10.37,2013-12-28 14:15:00,
2013-12-28 09:20:00,35.7,28.9,30.16,South,181,12.7,12.7,76,0.00,OVC,OVC,0.00,113.0,WeatherDisplay:10.37,2013-12-28 14:20:00,
2013-12-28 09:25:00,35.9,29.1,30.16,SSW,207,9.2,9.2,76,0.00,OVC,OVC,0.00,127.0,WeatherDisplay:10.37,2013-12-28 14:25:00,
2013-12-28 09:30:00,36.1,29.6,30.16,SW,218,8.1,8.1,77,0.00,OVC,OVC,0.00,141.0,WeatherDisplay:10.37,2013-12-28 14:30:00,
2013-12-28 09:35:00,36.3,29.8,30.16,SSW,206,6.9,6.9,77,0.00,OVC,OVC,0.00,153.0,WeatherDisplay:10.37,2013-12-28 14:35:00,
2013-12-28 09:40:00,36.4,29.9,30.16,SSW,207,10.4,10.4,77,0.00,OVC,OVC,0.00,167.0,WeatherDisplay:10.37,2013-12-28 14:40:00,
2013-12-28 09:45:00,36.6,30.1,30.17,SSW,202,5.8,5.8,77,0.00,OVC,OVC,0.00,179.0,WeatherDisplay:10.37,2013-12-28 14:45:00,
2013-12-28 09:50:00,36.9,30.4,30.17,SSW,205,9.2,9.2,77,0.00,OVC,OVC,0.00,192.0,WeatherDisplay:10.37,2013-12-28 14:50:00,
2013-12-28 09:55:00,37.2,30.7,30.17,SW,215,7.0,7.0,77,0.00,OVC,OVC,0.00,206.0,WeatherDisplay:10.37,2013-12-28 14:55:00,
2013-12-28 10:00:00,37.3,30.7,30.16,SSW,199,9.2,9.2,77,0.00,OVC,OVC,0.00,218.0,WeatherDisplay:10.37,2013-12-28 15:00:00,
2013-12-28 10:05:00,37.4,30.8,30.16,SW,216,9.2,9.2,77,0.00,OVC,OVC,0.00,230.0,WeatherDisplay:10.37,2013-12-28 15:05:00,
2013-12-28 10:10:00,37.6,31.0,30.16,SW,227,9.2,9.2,77,0.00,OVC,OVC,0.00,243.0,WeatherDisplay:10.37,2013-12-28 15:10:00,
2013-12-28 10:15:00,37.8,31.2,30.16,South,187,11.5,11.5,77,0.00,OVC,OVC,0.00,251.0,WeatherDisplay:10.37,2013-12-28 15:15:00,
2013-12-28 10:20:00,37.8,31.2,30.16,South,182,11.5,11.5,77,0.00,OVC,OVC,0.00,262.0,WeatherDisplay:10.37,2013-12-28 15:20:00,
2013-12-28 10:25:00,38.1,31.5,30.16,South,180,11.5,11.5,77,0.00,OVC,OVC,0.00,272.0,WeatherDisplay:10.37,2013-12-28 15:25:00,
2013-12-28 10:30:00,38.3,31.7,30.16,SSW,199,10.4,10.4,77,0.00,OVC,OVC,0.00,281.0,WeatherDisplay:10.37,2013-12-28 15:30:00,
2013-12-28 10:35:00,38.5,31.9,30.16,SSW,205,11.5,11.5,77,0.00,OVC,OVC,0.00,292.0,WeatherDisplay:10.37,2013-12-28 15:35:00,
2013-12-28 10:40:00,38.7,32.1,30.16,SSW,207,8.1,8.1,77,0.00,OVC,OVC,0.00,301.0,WeatherDisplay:10.37,2013-12-28 15:40:00,
2013-12-28 10:45:00,39.1,32.5,30.16,SW,230,9.2,9.2,77,0.00,OVC,OVC,0.00,309.0,WeatherDisplay:10.37,2013-12-28 15:45:00,
2013-12-28 10:50:00,39.5,32.9,30.16,SSW,199,11.5,11.5,77,0.00,OVC,OVC,0.00,316.0,WeatherDisplay:10.37,2013-12-28 15:50:00,
2013-12-28 10:55:00,39.6,33.0,30.16,SW,222,7.0,7.0,77,0.00,OVC,OVC,0.00,323.0,WeatherDisplay:10.37,2013-12-28 15:55:00,
2013-12-28 11:00:00,39.8,32.8,30.16,SW,236,11.5,11.5,76,0.00,OVC,OVC,0.00,332.0,WeatherDisplay:10.37,2013-12-28 16:00:00,
2013-12-28 11:05:00,39.8,32.8,30.16,SSW,202,12.7,12.7,76,0.00,OVC,OVC,0.00,339.0,WeatherDisplay:10.37,2013-12-28 16:05:00,
2013-12-28 11:10:00,40.0,33.4,30.15,SSW,207,15.0,15.0,77,0.00,OVC,OVC,0.00,346.0,WeatherDisplay:10.37,2013-12-28 16:10:00,
2013-12-28 11:15:00,40.2,33.2,30.15,SSW,209,11.5,11.5,76,0.00,OVC,OVC,0.00,353.0,WeatherDisplay:10.37,2013-12-28 16:15:00,
2013-12-28 11:20:00,40.2,33.2,30.15,SW,215,11.5,11.5,76,0.00,OVC,OVC,0.00,359.0,WeatherDisplay:10.37,2013-12-28 16:20:00,
2013-12-28 11:25:00,40.5,33.5,30.15,SW,219,12.7,12.7,76,0.00,OVC,OVC,0.00,366.0,WeatherDisplay:10.37,2013-12-28 16:25:00,
2013-12-28 11:30:00,40.5,33.5,30.15,SW,221,5.0,88.0,76,21.96,,---,0.00,,VWS V13.01,2013-12-28 16:30:00,
2013-12-28 11:35:00,40.9,33.9,30.15,SSW,203,11.5,11.5,76,0.00,OVC,OVC,0.00,376.0,WeatherDisplay:10.37,2013-12-28 16:35:00,
2013-12-28 11:40:00,41.0,34.0,30.14,SW,214,10.4,10.4,76,0.00,OVC,OVC,0.00,381.0,WeatherDisplay:10.37,2013-12-28 16:40:00,
2013-12-28 11:45:00,41.4,34.4,30.14,SW,225,6.0,88.0,76,21.96,,---,0.00,,VWS V13.01,2013-12-28 16:45:00,
2013-12-28 11:50:00,41.7,34.7,30.14,SSW,194,11.5,11.5,76,0.00,OVC,OVC,0.00,390.0,WeatherDisplay:10.37,2013-12-28 16:50:00,
2013-12-28 11:55:00,42.0,34.6,30.13,SSW,210,12.7,12.7,75,0.00,OVC,OVC,0.00,394.0,WeatherDisplay:10.37,2013-12-28 16:55:00,
2013-12-28 12:00:00,42.2,34.8,30.13,WSW,241,13.8,13.8,75,0.00,OVC,OVC,0.00,397.0,WeatherDisplay:10.37,2013-12-28 17:00:00,
2013-12-28 12:05:00,42.5,35.1,30.13,West,269,10.4,10.4,75,0.00,OVC,OVC,0.00,401.0,WeatherDisplay:10.37,2013-12-28 17:05:00,
2013-12-28 12:10:00,42.6,35.2,30.12,South,188,15.0,15.0,75,0.00,OVC,OVC,0.00,404.0,WeatherDisplay:10.37,2013-12-28 17:10:00,
2013-12-28 12:15:00,42.4,35.0,30.12,South,171,16.1,16.1,75,0.00,OVC,OVC,0.00,404.0,WeatherDisplay:10.37,2013-12-28 17:15:00,
2013-12-28 12:20:00,42.5,35.2,30.12,SW,217,12.0,88.0,75,21.96,,---,0.00,,VWS V13.01,2013-12-28 17:20:00,
2013-12-28 12:25:00,42.8,35.1,30.12,SSW,196,15.0,15.0,74,0.00,OVC,OVC,0.00,408.0,WeatherDisplay:10.37,2013-12-28 17:25:00,
2013-12-28 12:30:00,42.9,35.2,30.12,SSW,194,19.6,19.6,74,0.00,OVC,OVC,0.00,408.0,WeatherDisplay:10.37,2013-12-28 17:30:00,
2013-12-28 12:35:00,43.1,35.4,30.11,SSW,205,17.3,17.3,74,0.00,OVC,OVC,0.00,408.0,WeatherDisplay:10.37,2013-12-28 17:35:00,
2013-12-28 12:40:00,43.4,35.7,30.11,SSW,199,13.8,13.8,74,0.00,OVC,OVC,0.00,408.0,WeatherDisplay:10.37,2013-12-28 17:40:00,
2013-12-28 12:45:00,43.9,35.8,30.10,South,183,5.0,88.0,73,21.96,,---,0.00,,VWS V13.01,2013-12-28 17:45:00,
2013-12-28 12:50:00,43.8,35.7,30.10,SSW,211,13.8,13.8,73,0.00,OVC,OVC,0.00,410.0,WeatherDisplay:10.37,2013-12-28 17:50:00,
2013-12-28 12:55:00,43.8,35.7,30.10,SSW,196,11.5,11.5,73,0.00,OVC,OVC,0.00,410.0,WeatherDisplay:10.37,2013-12-28 17:55:00,
2013-12-28 13:00:00,43.7,35.6,30.09,SW,218,16.1,16.1,73,0.00,OVC,OVC,0.00,408.0,WeatherDisplay:10.37,2013-12-28 18:00:00,
2013-12-28 13:05:00,43.9,35.8,30.09,SW,219,12.7,12.7,73,0.00,OVC,OVC,0.00,408.0,WeatherDisplay:10.37,2013-12-28 18:05:00,
2013-12-28 13:10:00,44.2,35.7,30.08,SW,221,11.5,11.5,72,0.00,OVC,OVC,0.00,404.0,WeatherDisplay:10.37,2013-12-28 18:10:00,
2013-12-28 13:15:00,44.4,36.3,30.08,SSW,198,10.4,10.4,73,0.00,OVC,OVC,0.00,403.0,WeatherDisplay:10.37,2013-12-28 18:15:00,
2013-12-28 13:20:00,44.7,36.2,30.08,SSW,203,12.7,12.7,72,0.00,OVC,OVC,0.00,399.0,WeatherDisplay:10.37,2013-12-28 18:20:00,
2013-12-28 13:25:00,45.0,36.2,30.07,SSW,209,16.0,16.0,71,0.00,OVC,OVC,0.00,397.0,WeatherDisplay:10.37,2013-12-28 18:25:00,
2013-12-28 13:30:00,45.0,36.5,30.07,SW,224,17.0,17.0,72,0.00,OVC,OVC,0.00,394.0,WeatherDisplay:10.37,2013-12-28 18:30:00,
2013-12-28 13:35:00,45.0,36.2,30.07,SW,222,16.1,16.1,71,0.00,OVC,OVC,0.00,390.0,WeatherDisplay:10.37,2013-12-28 18:35:00,
2013-12-28 13:40:00,45.0,36.2,30.07,SW,216,15.0,15.0,71,0.00,OVC,OVC,0.00,387.0,WeatherDisplay:10.37,2013-12-28 18:40:00,
2013-12-28 13:45:00,45.3,36.4,30.06,SSW,194,17.0,17.0,71,0.00,OVC,OVC,0.00,383.0,WeatherDisplay:10.37,2013-12-28 18:45:00,
2013-12-28 13:50:00,45.4,36.5,30.06,SSW,211,16.1,16.1,71,0.00,OVC,OVC,0.00,380.0,WeatherDisplay:10.37,2013-12-28 18:50:00,
2013-12-28 13:55:00,45.6,36.7,30.06,SSW,211,12.7,12.7,71,0.00,OVC,OVC,0.00,374.0,WeatherDisplay:10.37,2013-12-28 18:55:00,
2013-12-28 14:00:00,46.1,36.9,30.06,SW,217,13.0,88.0,70,21.96,,---,0.00,,VWS V13.01,2013-12-28 19:00:00,
2013-12-28 14:05:00,46.1,36.9,30.06,SSW,194,15.0,15.0,70,0.00,OVC,OVC,0.00,366.0,WeatherDisplay:10.37,2013-12-28 19:05:00,
2013-12-28 14:10:00,46.3,37.0,30.07,SSW,205,18.4,18.4,70,0.00,CLR,CLR,0.00,362.0,WeatherDisplay:10.37,2013-12-28 19:10:00,
2013-12-28 14:15:00,46.3,36.7,30.07,SSW,194,23.0,23.0,69,0.00,CLR,CLR,0.00,357.0,WeatherDisplay:10.37,2013-12-28 19:15:00,
2013-12-28 14:20:00,46.5,36.9,30.07,SW,214,20.0,88.0,69,21.96,,---,0.00,,VWS V13.01,2013-12-28 19:20:00,
2013-12-28 14:25:00,46.8,37.2,30.07,SSW,206,16.1,16.1,69,0.00,CLR,CLR,0.00,345.0,WeatherDisplay:10.37,2013-12-28 19:25:00,
2013-12-28 14:30:00,47.1,37.4,30.07,SSW,207,13.8,13.8,69,0.00,CLR,CLR,0.00,338.0,WeatherDisplay:10.37,2013-12-28 19:30:00,
2013-12-28 14:35:00,47.0,37.0,30.06,SSW,205,12.0,88.0,68,21.96,,---,0.00,,VWS V13.01,2013-12-28 19:35:00,
2013-12-28 14:40:00,46.9,36.9,30.07,SSW,213,19.6,19.6,68,0.00,CLR,CLR,0.00,292.0,WeatherDisplay:10.37,2013-12-28 19:40:00,
2013-12-28 14:45:00,47.0,37.0,30.06,SSW,192,19.6,19.6,68,0.00,CLR,CLR,0.00,309.0,WeatherDisplay:10.37,2013-12-28 19:45:00,
2013-12-28 14:50:00,46.9,36.5,30.06,SSW,210,17.3,17.3,67,0.00,CLR,CLR,0.00,301.0,WeatherDisplay:10.37,2013-12-28 19:50:00,
2013-12-28 14:55:00,46.9,36.5,30.07,SW,219,26.5,26.5,67,0.00,CLR,CLR,0.00,290.0,WeatherDisplay:10.37,2013-12-28 19:55:00,
2013-12-28 15:00:00,46.9,36.9,30.07,SW,218,15.0,88.0,68,21.96,,---,0.00,,VWS V13.01,2013-12-28 20:00:00,
2013-12-28 15:05:00,46.8,36.8,30.07,SSW,205,19.6,19.6,68,0.00,CLR,CLR,0.00,274.0,WeatherDisplay:10.37,2013-12-28 20:05:00,
2013-12-28 15:10:00,46.8,36.8,30.06,SW,222,16.1,16.1,68,0.00,CLR,CLR,0.00,264.0,WeatherDisplay:10.37,2013-12-28 20:10:00,
2013-12-28 15:15:00,46.9,36.9,30.06,SSW,211,18.4,18.4,68,0.00,CLR,CLR,0.00,255.0,WeatherDisplay:10.37,2013-12-28 20:15:00,
2013-12-28 15:20:00,47.1,37.1,30.06,SW,216,18.4,18.4,68,0.00,CLR,CLR,0.00,246.0,WeatherDisplay:10.37,2013-12-28 20:20:00,
2013-12-28 15:25:00,47.2,37.5,30.06,SW,217,16.1,16.1,69,0.00,CLR,CLR,0.00,234.0,WeatherDisplay:10.37,2013-12-28 20:25:00,
2013-12-28 15:30:00,47.1,37.1,30.06,SSW,211,17.3,17.3,68,0.00,CLR,CLR,0.00,225.0,WeatherDisplay:10.37,2013-12-28 20:30:00,
2013-12-28 15:35:00,46.9,36.9,30.05,SW,215,19.6,19.6,68,0.00,CLR,CLR,0.00,211.0,WeatherDisplay:10.37,2013-12-28 20:35:00,
2013-12-28 15:40:00,46.9,36.9,30.06,SSW,206,15.0,15.0,68,0.00,CLR,CLR,0.00,200.0,WeatherDisplay:10.37,2013-12-28 20:40:00,
2013-12-28 15:45:00,47.0,37.0,30.06,SW,219,18.0,18.0,68,0.00,CLR,CLR,0.00,183.0,WeatherDisplay:10.37,2013-12-28 20:45:00,
2013-12-28 15:50:00,47.1,37.1,30.06,South,187,11.5,11.5,68,0.00,FEW,FEW,0.00,172.0,WeatherDisplay:10.37,2013-12-28 20:50:00,
2013-12-28 15:55:00,47.0,36.6,30.06,South,180,20.7,20.7,67,0.00,SCT,SCT,0.00,155.0,WeatherDisplay:10.37,2013-12-28 20:55:00,
2013-12-28 16:00:00,46.8,36.8,30.06,SSW,207,10.0,88.0,68,21.96,,---,0.00,,VWS V13.01,2013-12-28 21:00:00,
2013-12-28 16:05:00,46.8,36.8,30.05,SSW,205,19.6,19.6,68,0.00,SCT,SCT,0.00,107.0,WeatherDisplay:10.37,2013-12-28 21:05:00,
2013-12-28 16:10:00,46.6,36.6,30.05,SSW,197,11.5,11.5,68,0.00,OVC,OVC,0.00,56.0,WeatherDisplay:10.37,2013-12-28 21:10:00,
2013-12-28 16:15:00,46.2,36.6,30.05,SSW,213,11.5,11.5,69,0.00,OVC,OVC,0.00,33.0,WeatherDisplay:10.37,2013-12-28 21:15:00,
2013-12-28 16:20:00,45.8,36.6,30.05,SSW,203,13.8,13.8,70,0.00,OVC,OVC,0.00,58.0,WeatherDisplay:10.37,2013-12-28 21:20:00,
2013-12-28 16:25:00,45.7,36.5,30.05,SSW,199,11.5,11.5,70,0.00,OVC,OVC,0.00,84.0,WeatherDisplay:10.37,2013-12-28 21:25:00,
2013-12-28 16:30:00,45.7,36.5,30.04,SSW,213,13.8,13.8,70,0.00,OVC,OVC,0.00,95.0,WeatherDisplay:10.37,2013-12-28 21:30:00,
2013-12-28 16:35:00,46.0,36.8,30.04,SSW,202,9.0,88.0,70,21.96,,---,0.00,,VWS V13.01,2013-12-28 21:35:00,
2013-12-28 16:40:00,46.1,36.9,30.04,South,188,11.5,11.5,70,0.00,OVC,OVC,0.00,65.0,WeatherDisplay:10.37,2013-12-28 21:40:00,
2013-12-28 16:45:00,46.0,36.8,30.05,SSW,211,11.5,11.5,70,0.00,OVC,OVC,0.00,47.0,WeatherDisplay:10.37,2013-12-28 21:45:00,
2013-12-28 16:50:00,45.9,36.7,30.05,SSW,205,8.0,88.0,70,21.96,,---,0.00,,VWS V13.01,2013-12-28 21:50:00,
2013-12-28 16:55:00,45.6,36.4,30.05,SSW,203,10.4,10.4,70,0.00,OVC,OVC,0.00,14.0,WeatherDisplay:10.37,2013-12-28 21:55:00,
2013-12-28 17:01:00,45.2,36.4,30.05,SSW,205,6.9,6.9,71,0.00,OVC,OVC,0.00,11.0,WeatherDisplay:10.37,2013-12-28 22:01:00,
2013-12-28 17:06:00,44.9,36.4,30.05,SSW,193,10.4,10.4,72,0.00,OVC,OVC,0.00,9.0,WeatherDisplay:10.37,2013-12-28 22:06:00,
2013-12-28 17:11:00,44.6,36.1,30.05,SSW,200,9.0,9.0,72,0.00,OVC,OVC,0.00,7.0,WeatherDisplay:10.37,2013-12-28 22:11:00,
2013-12-28 17:16:00,44.5,36.0,30.04,SSW,206,9.2,9.2,72,0.00,OVC,OVC,0.00,5.0,WeatherDisplay:10.37,2013-12-28 22:16:00,
2013-12-28 17:21:00,44.2,35.8,30.04,SSW,202,6.0,88.0,72,21.96,,---,0.00,,VWS V13.01,2013-12-28 22:21:00,
2013-12-28 17:26:00,44.0,35.9,30.03,SSW,193,5.8,5.8,73,0.00,OVC,OVC,0.00,0.0,WeatherDisplay:10.37,2013-12-28 22:26:00,
2013-12-28 17:31:00,43.5,35.4,30.02,South,188,5.0,5.0,73,0.00,OVC,OVC,0.00,0.0,WeatherDisplay:10.37,2013-12-28 22:31:00,
2013-12-28 17:36:00,42.7,35.0,30.03,South,184,6.9,6.9,74,0.00,OVC,OVC,0.00,0.0,WeatherDisplay:10.37,2013-12-28 22:36:00,
2013-12-28 17:41:00,42.4,35.0,30.03,SSW,194,6.9,6.9,75,0.00,OVC,OVC,0.00,0.0,WeatherDisplay:10.37,2013-12-28 22:41:00,
2013-12-28 17:46:00,42.2,34.8,30.04,South,190,9.2,9.2,75,0.00,OVC,OVC,0.00,0.0,WeatherDisplay:10.37,2013-12-28 22:46:00,
2013-12-28 17:51:00,41.8,34.5,30.04,South,184,5.8,5.8,75,0.00,OVC,OVC,0.00,0.0,WeatherDisplay:10.37,2013-12-28 22:51:00,
2013-12-28 17:56:00,41.8,34.5,30.04,SSW,198,10.4,10.4,75,0.00,OVC,OVC,0.00,0.0,WeatherDisplay:10.37,2013-12-28 22:56:00,
2013-12-28 18:01:00,41.9,34.6,30.04,SSW,194,5.8,5.8,75,0.00,OVC,OVC,0.00,0.0,WeatherDisplay:10.37,2013-12-28 23:01:00,
2013-12-28 18:06:00,42.1,34.7,30.04,SSW,207,17.3,17.3,75,0.00,OVC,OVC,0.00,0.0,WeatherDisplay:10.37,2013-12-28 23:06:00,
2013-12-28 18:11:00,42.3,34.9,30.04,South,187,10.0,10.0,75,0.00,OVC,OVC,0.00,0.0,WeatherDisplay:10.37,2013-12-28 23:11:00,
2013-12-28 18:16:00,42.3,34.9,30.04,SSW,210,12.0,12.0,75,0.00,OVC,OVC,0.00,0.0,WeatherDisplay:10.37,2013-12-28 23:16:00,
2013-12-28 18:21:00,42.1,34.7,30.04,SSW,207,11.5,11.5,75,0.00,OVC,OVC,0.00,0.0,WeatherDisplay:10.37,2013-12-28 23:21:00,
2013-12-28 18:26:00,42.1,34.7,30.03,SSW,193,11.5,11.5,75,0.00,OVC,OVC,0.00,0.0,WeatherDisplay:10.37,2013-12-28 23:26:00,
2013-12-28 18:31:00,42.0,35.0,30.04,SSW,213,11.0,11.0,76,0.00,OVC,OVC,0.00,0.0,WeatherDisplay:10.37,2013-12-28 23:31:00,
2013-12-28 18:36:00,42.0,35.0,30.03,SSW,192,8.1,8.1,76,0.00,OVC,OVC,0.00,0.0,WeatherDisplay:10.37,2013-12-28 23:36:00,
2013-12-28 18:41:00,41.8,34.8,30.03,SSW,205,9.2,9.2,76,0.00,OVC,OVC,0.00,0.0,WeatherDisplay:10.37,2013-12-28 23:41:00,
2013-12-28 18:46:00,41.7,34.7,30.02,South,186,10.4,10.4,76,0.00,OVC,OVC,0.00,0.0,WeatherDisplay:10.37,2013-12-28 23:46:00,
2013-12-28 18:51:00,41.4,34.4,30.02,South,191,9.2,9.2,76,0.00,OVC,OVC,0.00,0.0,WeatherDisplay:10.37,2013-12-28 23:51:00,
2013-12-28 18:56:00,41.3,34.3,30.02,SSE,165,10.4,10.4,76,0.00,CLR,CLR,0.00,0.0,WeatherDisplay:10.37,2013-12-28 23:56:00,
2013-12-28 19:01:00,41.3,34.3,30.02,SSW,196,11.5,11.5,76,0.00,CLR,CLR,0.00,0.0,WeatherDisplay:10.37,2013-12-29 00:01:00,
2013-12-28 19:06:00,41.3,34.3,30.02,SSW,207,12.7,12.7,76,0.00,CLR,CLR,0.00,0.0,WeatherDisplay:10.37,2013-12-29 00:06:00,
2013-12-28 19:11:00,41.3,34.3,30.02,South,182,14.0,14.0,76,0.00,CLR,CLR,0.00,0.0,WeatherDisplay:10.37,2013-12-29 00:11:00,
2013-12-28 19:16:00,41.5,34.5,30.02,South,190,12.7,12.7,76,0.00,CLR,CLR,0.00,0.0,WeatherDisplay:10.37,2013-12-29 00:16:00,
2013-12-28 19:21:00,41.6,34.3,30.02,SSW,194,9.2,9.2,75,0.00,CLR,CLR,0.00,0.0,WeatherDisplay:10.37,2013-12-29 00:21:00,
2013-12-28 19:26:00,41.5,34.2,30.02,South,179,13.0,13.0,75,0.00,CLR,CLR,0.00,0.0,WeatherDisplay:10.37,2013-12-29 00:26:00,
2013-12-28 19:31:00,41.6,34.3,30.02,SW,218,12.0,12.0,75,0.00,CLR,CLR,0.00,0.0,WeatherDisplay:10.37,2013-12-29 00:31:00,
2013-12-28 19:36:00,41.6,34.3,30.01,SSW,200,10.4,10.4,75,0.00,CLR,CLR,0.00,0.0,WeatherDisplay:10.37,2013-12-29 00:36:00,
2013-12-28 19:41:00,41.5,34.2,30.01,SSW,211,9.2,9.2,75,0.00,CLR,CLR,0.00,0.0,WeatherDisplay:10.37,2013-12-29 00:41:00,
2013-12-28 19:46:00,41.4,34.1,30.01,SSW,202,13.0,13.0,75,0.00,CLR,CLR,0.00,0.0,WeatherDisplay:10.37,2013-12-29 00:46:00,
2013-12-28 19:51:00,41.4,34.1,30.01,SSW,202,8.0,88.0,75,21.96,,---,0.00,,VWS V13.01,2013-12-29 00:51:00,
2013-12-28 19:56:00,41.4,34.1,30.02,SSW,211,16.1,16.1,75,0.00,CLR,CLR,0.00,0.0,WeatherDisplay:10.37,2013-12-29 00:56:00,
2013-12-28 20:01:00,41.3,34.0,30.01,SSW,200,11.5,11.5,75,0.00,CLR,CLR,0.00,0.0,WeatherDisplay:10.37,2013-12-29 01:01:00,
2013-12-28 20:06:00,41.1,33.8,30.01,SSW,210,6.0,88.0,75,21.96,,---,0.00,,VWS V13.01,2013-12-29 01:06:00,
2013-12-28 20:11:00,41.1,33.8,30.01,SSW,196,11.5,11.5,75,0.00,CLR,CLR,0.00,0.0,WeatherDisplay:10.37,2013-12-29 01:11:00,
2013-12-28 20:16:00,41.1,33.8,30.01,South,182,12.0,88.0,75,21.96,,---,0.00,,VWS V13.01,2013-12-29 01:16:00,
2013-12-28 20:21:00,41.0,33.7,30.01,SSW,209,13.0,13.0,75,0.00,CLR,CLR,0.00,0.0,WeatherDisplay:10.37,2013-12-29 01:21:00,
2013-12-28 20:26:00,40.8,33.5,30.01,SSW,208,6.0,88.0,75,21.96,,---,0.00,,VWS V13.01,2013-12-29 01:26:00,
2013-12-28 20:31:00,40.7,33.4,30.00,SW,215,17.0,17.0,75,0.00,CLR,CLR,0.00,0.0,WeatherDisplay:10.37,2013-12-29 01:31:00,
2013-12-28 20:36:00,40.6,33.6,30.00,SSW,209,11.0,11.0,76,0.00,CLR,CLR,0.00,0.0,WeatherDisplay:10.37,2013-12-29 01:36:00,
2013-12-28 20:41:00,40.3,33.3,29.99,SSW,192,11.5,11.5,76,0.00,CLR,CLR,0.00,0.0,WeatherDisplay:10.37,2013-12-29 01:41:00,
2013-12-28 20:46:00,40.2,33.2,29.99,SSW,206,13.8,13.8,76,0.00,CLR,CLR,0.00,0.0,WeatherDisplay:10.37,2013-12-29 01:46:00,
2013-12-28 20:51:00,40.1,33.1,29.99,SSW,210,12.7,12.7,76,0.00,CLR,CLR,0.00,0.0,WeatherDisplay:10.37,2013-12-29 01:51:00,
2013-12-28 20:56:00,40.1,33.1,29.99,SW,222,11.5,11.5,76,0.00,CLR,CLR,0.00,0.0,WeatherDisplay:10.37,2013-12-29 01:56:00,
2013-12-28 21:01:00,40.0,33.1,30.00,SSW,202,13.0,88.0,76,21.96,,---,0.00,,VWS V13.01,2013-12-29 02:01:00,
2013-12-28 21:06:00,40.1,32.8,30.00,SW,220,16.1,16.1,75,0.00,CLR,CLR,0.00,0.0,WeatherDisplay:10.37,2013-12-29 02:06:00,
2013-12-28 21:11:00,40.1,32.8,29.99,SSW,207,16.1,16.1,75,0.00,CLR,CLR,0.00,0.0,WeatherDisplay:10.37,2013-12-29 02:11:00,
2013-12-28 21:16:00,39.9,32.6,29.98,SW,225,10.4,10.4,75,0.00,CLR,CLR,0.00,0.0,WeatherDisplay:10.37,2013-12-29 02:16:00,
2013-12-28 21:21:00,39.7,32.4,29.98,SSW,205,11.5,11.5,75,0.00,CLR,CLR,0.00,0.0,WeatherDisplay:10.37,2013-12-29 02:21:00,
2013-12-28 21:26:00,39.7,32.4,29.98,SSW,209,12.7,12.7,75,0.00,CLR,CLR,0.00,0.0,WeatherDisplay:10.37,2013-12-29 02:26:00,
2013-12-28 21:31:00,39.7,32.4,29.98,SW,215,16.1,16.1,75,0.00,CLR,CLR,0.00,0.0,WeatherDisplay:10.37,2013-12-29 02:31:00,
2013-12-28 21:36:00,39.7,32.4,29.98,SW,218,13.0,88.0,75,21.96,,---,0.00,,VWS V13.01,2013-12-29 02:36:00,
2013-12-28 21:41:00,39.7,32.4,29.98,SSW,194,17.3,17.3,75,0.00,CLR,CLR,0.00,0.0,WeatherDisplay:10.37,2013-12-29 02:41:00,
2013-12-28 21:46:00,39.6,32.3,29.98,SW,226,17.3,17.3,75,0.00,CLR,CLR,0.00,0.0,WeatherDisplay:10.37,2013-12-29 02:46:00,
2013-12-28 21:51:00,39.5,32.2,29.98,SSW,210,20.7,20.7,75,0.00,CLR,CLR,0.00,0.0,WeatherDisplay:10.37,2013-12-29 02:51:00,
2013-12-28 21:56:00,39.4,32.1,29.98,SSW,211,18.0,18.0,75,0.00,CLR,CLR,0.00,0.0,WeatherDisplay:10.37,2013-12-29 02:56:00,
2013-12-28 22:01:00,39.4,31.8,29.97,SSW,213,9.0,88.0,74,21.96,,---,0.00,,VWS V13.01,2013-12-29 03:01:00,
2013-12-28 22:06:00,39.3,31.7,29.97,South,191,26.5,26.5,74,0.00,CLR,CLR,0.00,0.0,WeatherDisplay:10.37,2013-12-29 03:06:00,
2013-12-28 22:11:00,39.1,31.8,29.97,SW,217,10.0,10.0,75,0.00,CLR,CLR,0.00,0.0,WeatherDisplay:10.37,2013-12-29 03:11:00,
2013-12-28 22:16:00,38.9,31.7,29.96,SSW,208,6.0,88.0,75,21.96,,---,0.00,,VWS V13.01,2013-12-29 03:16:00,
2013-12-28 22:21:00,38.9,31.6,29.97,SSW,200,11.5,11.5,75,0.00,CLR,CLR,0.00,0.0,WeatherDisplay:10.37,2013-12-29 03:21:00,
2013-12-28 22:26:00,38.8,31.6,29.96,SSW,196,19.0,19.0,75,0.00,CLR,CLR,0.00,0.0,WeatherDisplay:10.37,2013-12-29 03:26:00,
2013-12-28 22:31:00,38.7,31.5,29.96,SSW,211,11.5,11.5,75,0.00,CLR,CLR,0.00,0.0,WeatherDisplay:10.37,2013-12-29 03:31:00,
2013-12-28 22:36:00,38.5,31.3,29.96,SW,216,9.2,9.2,75,0.00,CLR,CLR,0.00,0.0,WeatherDisplay:10.37,2013-12-29 03:36:00,
2013-12-28 22:41:00,38.5,31.6,29.96,SSW,202,11.5,11.5,76,0.00,CLR,CLR,0.00,0.0,WeatherDisplay:10.37,2013-12-29 03:41:00,
2013-12-28 22:46:00,38.4,31.5,29.96,SW,228,11.5,11.5,76,0.00,CLR,CLR,0.00,0.0,WeatherDisplay:10.37,2013-12-29 03:46:00,
2013-12-28 22:51:00,38.5,31.6,29.95,SSW,212,24.2,24.2,76,0.00,CLR,CLR,0.00,0.0,WeatherDisplay:10.37,2013-12-29 03:51:00,
2013-12-28 22:56:00,38.5,31.6,29.95,South,174,16.1,16.1,76,0.00,CLR,CLR,0.00,0.0,WeatherDisplay:10.37,2013-12-29 03:56:00,
2013-12-28 23:01:00,38.4,31.5,29.95,SW,214,15.0,15.0,76,0.00,CLR,CLR,0.00,0.0,WeatherDisplay:10.37,2013-12-29 04:01:00,
2013-12-28 23:02:00,38.3,31.4,29.93,SSW,212,10.4,10.4,76,0.00,CLR,CLR,0.00,0.0,WeatherDisplay:10.37,2013-12-29 04:02:00,
2013-12-28 23:03:00,38.3,31.4,29.93,South,186,10.4,10.4,76,0.00,CLR,CLR,0.00,0.0,WeatherDisplay:10.37,2013-12-29 04:03:00,
2013-12-28 23:04:00,38.3,31.4,29.93,SSW,198,8.1,8.1,76,0.00,CLR,CLR,0.00,0.0,WeatherDisplay:10.37,2013-12-29 04:04:00,
2013-12-28 23:05:00,38.2,31.3,29.93,SW,219,6.0,6.0,76,0.00,CLR,CLR,0.00,0.0,WeatherDisplay:10.37,2013-12-29 04:05:00,
2013-12-28 23:06:00,38.4,31.5,29.95,SW,221,14.0,14.0,76,0.00,CLR,CLR,0.00,0.0,WeatherDisplay:10.37,2013-12-29 04:06:00,
2013-12-28 23:07:00,38.3,31.4,29.93,South,187,5.0,88.0,76,21.96,,---,0.00,,VWS V13.01,2013-12-29 04:07:00,
2013-12-28 23:08:00,38.3,31.4,29.93,SSW,198,4.0,88.0,76,21.96,,---,0.00,,VWS V13.01,2013-12-29 04:08:00,
2013-12-28 23:09:00,38.2,31.3,29.93,SW,225,9.0,88.0,76,21.96,,---,0.00,,VWS V13.01,2013-12-29 04:09:00,
2013-12-28 23:10:00,38.2,31.3,29.93,SW,217,11.0,88.0,76,21.96,,---,0.00,,VWS V13.01,2013-12-29 04:10:00,
2013-12-28 23:11:00,38.4,31.5,29.95,South,187,11.0,88.0,76,21.96,,---,0.00,,VWS V13.01,2013-12-29 04:11:00,
2013-12-28 23:12:00,38.2,31.3,29.93,SW,218,4.0,88.0,76,21.96,,---,0.00,,VWS V13.01,2013-12-29 04:12:00,
2013-12-28 23:13:00,38.1,31.2,29.93,SSW,192,5.0,88.0,76,21.96,,---,0.00,,VWS V13.01,2013-12-29 04:13:00,
2013-12-28 23:14:00,38.1,31.2,29.93,SSW,201,7.0,88.0,76,21.96,,---,0.00,,VWS V13.01,2013-12-29 04:14:00,
2013-12-28 23:15:00,38.1,31.2,29.93,South,186,2.0,88.0,76,21.96,,---,0.00,,VWS V13.01,2013-12-29 04:15:00,
2013-12-28 23:16:00,38.4,31.5,29.94,SW,218,12.7,12.7,76,0.00,CLR,CLR,0.00,0.0,WeatherDisplay:10.37,2013-12-29 04:16:00,
2013-12-28 23:21:00,38.5,31.6,29.95,SSW,200,13.0,88.0,76,21.96,,---,0.00,,VWS V13.01,2013-12-29 04:21:00,
2013-12-28 23:26:00,38.6,31.7,29.94,SSW,202,17.3,17.3,76,0.00,CLR,CLR,0.00,0.0,WeatherDisplay:10.37,2013-12-29 04:26:00,
2013-12-28 23:31:00,38.5,31.6,29.93,SSW,201,10.0,88.0,76,21.96,,---,0.00,,VWS V13.01,2013-12-29 04:31:00,
2013-12-28 23:36:00,38.5,31.6,29.93,SW,225,13.8,13.8,76,0.00,CLR,CLR,0.00,0.0,WeatherDisplay:10.37,2013-12-29 04:36:00,
2013-12-28 23:41:00,38.3,31.4,29.93,SSW,211,7.0,88.0,76,21.96,,---,0.00,,VWS V13.01,2013-12-29 04:41:00,
2013-12-28 23:46:00,38.3,31.4,29.93,SW,221,18.4,18.4,76,0.00,CLR,CLR,0.00,0.0,WeatherDisplay:10.37,2013-12-29 04:46:00,
2013-12-28 23:51:00,38.3,31.4,29.93,SSW,213,16.0,16.0,76,0.00,CLR,CLR,0.00,0.0,WeatherDisplay:10.37,2013-12-29 04:51:00,
2013-12-28 23:56:00,38.4,31.5,29.93,South,178,13.8,13.8,76,0.00,CLR,CLR,0.00,0.0,WeatherDisplay:10.37,2013-12-29 04:56:00,